Zurück zum Katalog

STARLINK-3139

AktivKommunikationVLEO
NORAD 49425·PAYLOAD·🇺🇸 United States

Gestartet Nov 13, 2021 von Cape Canaveral Space Force Station

Loading…

Nächste Überflüge (nächste 24 Stunden)

TLE

AktuellSource: CelesTrak SupGP

Epoche: Sep 14, 2026, 13:08 UTC

1 49425C 21104T   26257.54770833  .00012186  00000+0  39185-3 0  2574
2 49425  53.1570  88.5441 0001262  96.9474 136.0957 15.31698421    19

Verfolge STARLINK-3139 in Echtzeit mit AllMySat

Download on the App Store